CZ-2C DEB (55846 NORAD) Tracking and Keplerian Element Data

This shows tracking and keplerian element data for the satellite.

Feedback or suggestion? Click here.




ElementValue
Catalog55846
NameCZ-2C DEB
Epoch Orbit197
Epoch Day85.1827795
Epoch Year2023
RAAN159.0954
Inclination97.6436
Eccentricity0.0062622
Argument of Perigee191.0852
Mean Anonmoly168.8773
Mean Motion15.12129452
Decay Rate8.965E-05
L11 55846U 23032C 23085.18277950 .00008965 00000+0 49976-3 0 9990
L22 55846 97.6436 159.0954 0062622 191.0852 168.8773 15.12129452 1971



Live tracking and technical data element details for CZ-2C DEB (NORAD 55846). CZ-2C DEB can be tracked NOW for your location showing map with azimuth and elevation plus other details from your city location.







IsCatalogInMostPopularTable: catalog: 55846, numindb: 6
Update: records affected: 1



GetName: 55846 CZ-2C DEB

Hit Count: updated at: Tue, 06 Jun 2023 03:00:22 GMT